Time,TemperatureF,DewpointF,PressureIn,WindDirection,WindDirectionDegrees,WindSpeedMPH,WindSpeedGustMPH,Humidity,HourlyPrecipIn,Conditions,Clouds,dailyrainin,SoftwareType,DateUTC
2013-08-07 00:01:00,70.3,58.8,29.78,NNW,336,7.0,7.0,67,0.00,,,0.00,VWS V12.08,2013-08-07 05:01:00,
2013-08-07 00:06:00,70.5,58.6,29.78,NNW,335,6.0,10.0,66,0.00,,,0.00,VWS V12.08,2013-08-07 05:06:00,
2013-08-07 00:11:00,70.5,58.2,29.78,North,11,9.0,10.0,65,0.00,,,0.00,VWS V12.08,2013-08-07 05:11:00,
2013-08-07 00:16:00,70.5,58.2,29.79,NNE,18,1.0,10.0,65,0.00,,,0.00,VWS V12.08,2013-08-07 05:16:00,
2013-08-07 00:21:00,70.3,58.0,29.79,NNE,24,3.0,10.0,65,0.00,,,0.00,VWS V12.08,2013-08-07 05:21:00,
2013-08-07 00:26:00,70.2,57.9,29.79,NNE,12,2.0,10.0,65,0.00,,,0.00,VWS V12.08,2013-08-07 05:26:00,
2013-08-07 00:31:00,70.1,57.8,29.79,WNW,292,3.0,3.0,65,0.00,,,0.00,VWS V12.08,2013-08-07 05:31:00,
2013-08-07 00:36:00,70.0,57.7,29.79,WNW,292,2.0,3.0,65,0.00,,,0.00,VWS V12.08,2013-08-07 05:36:00,
2013-08-07 00:41:00,70.0,57.7,29.79,WNW,284,3.0,4.0,65,0.00,,,0.00,VWS V12.08,2013-08-07 05:41:00,
2013-08-07 00:46:00,69.8,57.5,29.79,NNW,328,4.0,4.0,65,0.00,,,0.00,VWS V12.08,2013-08-07 05:46:00,
2013-08-07 00:51:00,69.4,57.6,29.79,West,268,1.0,5.0,66,0.00,,,0.00,VWS V12.08,2013-08-07 05:51:00,
2013-08-07 00:56:00,68.8,57.4,29.80,NW,307,5.0,6.0,67,0.00,,,0.00,VWS V12.08,2013-08-07 05:56:00,
2013-08-07 01:01:00,67.9,57.8,29.80,WNW,298,4.0,4.0,70,0.00,,,0.00,VWS V12.08,2013-08-07 06:01:00,
2013-08-07 01:06:00,67.6,57.5,29.80,West,259,3.0,6.0,70,0.00,,,0.00,VWS V12.08,2013-08-07 06:06:00,
2013-08-07 01:11:00,67.2,57.5,29.80,NW,315,1.0,6.0,71,0.00,,,0.00,VWS V12.08,2013-08-07 06:11:00,
2013-08-07 01:16:00,67.1,57.8,29.81,WNW,303,5.0,6.0,72,0.00,,,0.00,VWS V12.08,2013-08-07 06:16:00,
2013-08-07 01:21:00,67.3,57.6,29.81,NW,319,3.0,9.0,71,0.00,,,0.00,VWS V12.08,2013-08-07 06:21:00,
2013-08-07 01:26:00,67.6,57.5,29.81,NNW,340,8.0,11.0,70,0.00,,,0.00,VWS V12.08,2013-08-07 06:26:00,
2013-08-07 01:31:00,67.5,57.8,29.82,NNE,22,10.0,11.0,71,0.00,,,0.00,VWS V12.08,2013-08-07 06:31:00,
2013-08-07 01:36:00,67.0,58.1,29.82,West,261,3.0,14.0,73,0.00,,,0.00,VWS V12.08,2013-08-07 06:36:00,
2013-08-07 01:41:00,66.2,58.4,29.81,North,355,7.0,15.0,76,0.00,,,0.00,VWS V12.08,2013-08-07 06:41:00,
2013-08-07 01:46:00,65.6,58.9,29.81,NNW,342,9.0,15.0,79,0.00,,,0.00,VWS V12.08,2013-08-07 06:46:00,
2013-08-07 01:51:00,65.2,59.2,29.82,NNW,330,5.0,15.0,81,0.00,,,0.00,VWS V12.08,2013-08-07 06:51:00,
2013-08-07 01:56:00,64.9,59.6,29.82,ESE,119,2.0,15.0,83,0.00,,,0.00,VWS V12.08,2013-08-07 06:56:00,
2013-08-07 02:01:00,64.6,59.7,29.82,NNE,18,10.0,10.0,84,0.00,,,0.00,VWS V12.08,2013-08-07 07:01:00,
2013-08-07 02:06:00,64.2,59.6,29.82,NE,38,10.0,13.0,85,0.00,,,0.00,VWS V12.08,2013-08-07 07:06:00,
2013-08-07 02:11:00,63.8,59.5,29.83,NW,311,7.0,13.0,86,0.00,,,0.00,VWS V12.08,2013-08-07 07:11:00,
2013-08-07 02:16:00,63.5,59.6,29.83,NE,54,4.0,13.0,87,0.00,,,0.00,VWS V12.08,2013-08-07 07:16:00,
2013-08-07 02:21:00,63.3,59.4,29.83,NNE,28,4.0,13.0,87,0.00,,,0.00,VWS V12.08,2013-08-07 07:21:00,
2013-08-07 02:26:00,63.0,59.4,29.83,NNW,336,9.0,13.0,88,0.00,,,0.00,VWS V12.08,2013-08-07 07:26:00,
2013-08-07 02:31:00,62.7,59.1,29.83,NW,316,5.0,10.0,88,0.00,,,0.00,VWS V12.08,2013-08-07 07:31:00,
2013-08-07 02:36:00,62.5,59.2,29.84,NNE,17,9.0,14.0,89,0.00,,,0.00,VWS V12.08,2013-08-07 07:36:00,
2013-08-07 02:41:00,62.4,59.4,29.84,NNE,32,6.0,14.0,90,0.00,,,0.00,VWS V12.08,2013-08-07 07:41:00,
2013-08-07 02:46:00,62.4,59.4,29.84,ENE,57,8.0,14.0,90,0.00,,,0.00,VWS V12.08,2013-08-07 07:46:00,
2013-08-07 02:51:00,62.4,59.7,29.84,NNE,23,5.0,14.0,91,0.00,,,0.00,VWS V12.08,2013-08-07 07:51:00,
2013-08-07 02:56:00,62.6,59.9,29.84,NNE,26,11.0,14.0,91,0.00,,,0.00,VWS V12.08,2013-08-07 07:56:00,
2013-08-07 03:01:00,62.7,60.0,29.84,NNE,26,13.0,13.0,91,0.00,,,0.00,VWS V12.08,2013-08-07 08:01:00,
2013-08-07 03:06:00,62.9,60.2,29.84,NNE,23,14.0,17.0,91,0.00,,,0.00,VWS V12.08,2013-08-07 08:06:00,
2013-08-07 03:11:00,63.0,60.3,29.83,North,5,9.0,17.0,91,0.00,,,0.00,VWS V12.08,2013-08-07 08:11:00,
2013-08-07 03:16:00,63.1,60.4,29.83,NNW,344,3.0,17.0,91,0.00,,,0.00,VWS V12.08,2013-08-07 08:16:00,
2013-08-07 03:21:00,63.2,60.5,29.83,North,11,5.0,17.0,91,0.00,,,0.00,VWS V12.08,2013-08-07 08:21:00,
2013-08-07 03:26:00,63.3,60.6,29.83,NE,48,8.0,17.0,91,0.00,,,0.00,VWS V12.08,2013-08-07 08:26:00,
2013-08-07 03:31:00,63.4,60.4,29.83,NNE,18,5.0,17.0,90,0.00,,,0.00,VWS V12.08,2013-08-07 08:31:00,
2013-08-07 03:36:00,63.4,60.4,29.83,NNE,23,6.0,10.0,90,0.00,,,0.00,VWS V12.08,2013-08-07 08:36:00,
2013-08-07 03:41:00,63.5,60.5,29.83,NNE,13,6.0,12.0,90,0.00,,,0.00,VWS V12.08,2013-08-07 08:41:00,
2013-08-07 03:46:00,63.6,60.6,29.83,North,351,2.0,12.0,90,0.00,,,0.00,VWS V12.08,2013-08-07 08:46:00,
2013-08-07 03:51:00,63.6,60.6,29.83,NNW,335,3.0,12.0,90,0.00,,,0.00,VWS V12.08,2013-08-07 08:51:00,
2013-08-07 03:56:00,63.6,60.6,29.83,West,275,3.0,12.0,90,0.00,,,0.00,VWS V12.08,2013-08-07 08:56:00,
2013-08-07 04:01:00,63.4,60.4,29.83,NNW,330,1.0,12.0,90,0.00,,,0.00,VWS V12.08,2013-08-07 09:01:00,
2013-08-07 04:06:00,63.3,60.3,29.83,North,351,3.0,6.0,90,0.00,,,0.00,VWS V12.08,2013-08-07 09:06:00,
2013-08-07 04:11:00,63.2,60.2,29.83,NNW,330,6.0,9.0,90,0.00,,,0.00,VWS V12.08,2013-08-07 09:11:00,
2013-08-07 04:16:00,63.2,60.2,29.83,NE,49,5.0,11.0,90,0.00,,,0.00,VWS V12.08,2013-08-07 09:16:00,
2013-08-07 04:21:00,63.2,59.9,29.83,NW,309,5.0,13.0,89,0.00,,,0.00,VWS V12.08,2013-08-07 09:21:00,
2013-08-07 04:26:00,63.1,59.8,29.83,NW,323,2.0,13.0,89,0.00,,,0.00,VWS V12.08,2013-08-07 09:26:00,
2013-08-07 04:31:00,63.1,59.8,29.83,NE,36,2.0,13.0,89,0.00,,,0.00,VWS V12.08,2013-08-07 09:31:00,
2013-08-07 04:36:00,63.0,59.4,29.83,NNE,32,10.0,12.0,88,0.00,,,0.00,VWS V12.08,2013-08-07 09:36:00,
2013-08-07 04:41:00,62.8,59.2,29.83,NE,35,10.0,14.0,88,0.00,,,0.00,VWS V12.08,2013-08-07 09:41:00,
2013-08-07 04:46:00,62.7,59.1,29.83,NNE,23,9.0,14.0,88,0.00,,,0.00,VWS V12.08,2013-08-07 09:46:00,
2013-08-07 04:50:00,62.6,59.0,29.83,NNW,339,5.0,14.0,88,0.00,,,0.00,VWS V12.08,2013-08-07 09:50:00,
2013-08-07 04:55:00,62.4,58.8,29.83,NE,35,6.0,14.0,88,0.00,,,0.00,VWS V12.08,2013-08-07 09:55:00,
2013-08-07 05:00:00,62.3,59.0,29.83,NE,42,4.0,14.0,89,0.00,,,0.00,VWS V12.08,2013-08-07 10:00:00,
2013-08-07 05:05:00,62.2,58.9,29.83,NE,43,0.0,5.0,89,0.00,,,0.00,VWS V12.08,2013-08-07 10:05:00,
2013-08-07 05:10:00,62.2,58.9,29.84,NNW,336,3.0,10.0,89,0.00,,,0.00,VWS V12.08,2013-08-07 10:10:00,
2013-08-07 05:15:00,62.2,58.9,29.84,NNE,13,5.0,10.0,89,0.00,,,0.00,VWS V12.08,2013-08-07 10:15:00,
2013-08-07 05:16:00,62.2,58.9,29.84,North,355,6.0,10.0,89,0.00,,,0.00,VWS V12.08,2013-08-07 10:16:00,
2013-08-07 05:21:00,62.1,58.8,29.84,NNW,345,0.0,11.0,89,0.00,,,0.00,VWS V12.08,2013-08-07 10:21:00,
2013-08-07 05:26:00,62.0,58.7,29.84,NNW,344,2.0,11.0,89,0.00,,,0.00,VWS V12.08,2013-08-07 10:26:00,
2013-08-07 05:31:00,61.8,58.5,29.84,NW,317,2.0,11.0,89,0.00,,,0.00,VWS V12.08,2013-08-07 10:31:00,
2013-08-07 05:36:00,61.7,58.4,29.84,NNW,330,0.0,4.0,89,0.00,,,0.00,VWS V12.08,2013-08-07 10:36:00,
2013-08-07 05:41:00,61.5,58.2,29.84,NW,323,2.0,4.0,89,0.00,,,0.00,VWS V12.08,2013-08-07 10:41:00,
2013-08-07 05:46:00,61.3,58.3,29.84,NNW,347,1.0,4.0,90,0.00,,,0.00,VWS V12.08,2013-08-07 10:46:00,
2013-08-07 05:51:00,61.2,58.2,29.85,West,261,0.0,4.0,90,0.00,,,0.00,VWS V12.08,2013-08-07 10:51:00,
2013-08-07 05:56:00,61.1,58.2,29.85,West,269,0.0,4.0,90,0.00,,,0.00,VWS V12.08,2013-08-07 10:56:00,
2013-08-07 06:01:00,61.0,58.0,29.86,West,269,0.0,4.0,90,0.00,,,0.00,VWS V12.08,2013-08-07 11:01:00,
2013-08-07 06:06:00,60.7,58.1,29.86,West,275,1.0,2.0,91,0.00,,,0.00,VWS V12.08,2013-08-07 11:06:00,
2013-08-07 06:11:00,60.6,58.0,29.86,West,281,2.0,2.0,91,0.00,,,0.00,VWS V12.08,2013-08-07 11:11:00,
2013-08-07 06:15:00,60.4,57.8,29.86,WNW,284,2.0,2.0,91,0.00,,,0.00,VWS V12.08,2013-08-07 11:15:00,
2013-08-07 06:20:00,60.3,57.7,29.86,NW,304,2.0,2.0,91,0.00,,,0.00,VWS V12.08,2013-08-07 11:20:00,
2013-08-07 06:25:00,60.1,57.8,29.86,NW,310,3.0,4.0,92,0.00,,,0.00,VWS V12.08,2013-08-07 11:25:00,
2013-08-07 06:30:00,60.0,57.7,29.86,North,355,4.0,5.0,92,0.00,,,0.00,VWS V12.08,2013-08-07 11:30:00,
2013-08-07 06:36:00,59.9,57.6,29.86,NNW,339,4.0,5.0,92,0.00,,,0.00,VWS V12.08,2013-08-07 11:36:00,
2013-08-07 06:41:00,60.0,57.7,29.86,NNW,346,3.0,5.0,92,0.00,,,0.00,VWS V12.08,2013-08-07 11:41:00,
2013-08-07 06:46:00,60.2,57.6,29.86,NNW,344,4.0,5.0,91,0.00,,,0.00,VWS V12.08,2013-08-07 11:46:00,
2013-08-07 06:51:00,60.4,57.8,29.87,NNE,20,2.0,5.0,91,0.00,,,0.00,VWS V12.08,2013-08-07 11:51:00,
2013-08-07 06:56:00,60.5,57.6,29.87,NNE,32,3.0,5.0,90,0.00,,,0.00,VWS V12.08,2013-08-07 11:56:00,
2013-08-07 07:01:00,60.5,57.6,29.87,NNW,342,2.0,5.0,90,0.00,,,0.00,VWS V12.08,2013-08-07 12:01:00,
2013-08-07 07:05:00,60.2,57.3,29.87,NNW,346,1.0,4.0,90,0.00,,,0.00,VWS V12.08,2013-08-07 12:05:00,
2013-08-07 07:10:00,60.1,57.5,29.88,NNW,348,3.0,6.0,91,0.00,,,0.00,VWS V12.08,2013-08-07 12:10:00,
2013-08-07 07:15:00,59.9,57.3,29.87,NW,310,2.0,6.0,91,0.00,,,0.00,VWS V12.08,2013-08-07 12:15:00,
2013-08-07 07:20:00,59.9,57.3,29.88,NW,307,4.0,6.0,91,0.00,,,0.00,VWS V12.08,2013-08-07 12:20:00,
2013-08-07 07:25:00,60.0,57.4,29.88,WNW,291,2.0,7.0,91,0.00,,,0.00,VWS V12.08,2013-08-07 12:25:00,
2013-08-07 07:30:00,60.1,57.5,29.88,NW,310,1.0,9.0,91,0.00,,,0.00,VWS V12.08,2013-08-07 12:30:00,
2013-08-07 07:35:00,60.3,57.7,29.89,NNW,342,7.0,9.0,91,0.00,,,0.00,VWS V12.08,2013-08-07 12:35:00,
2013-08-07 07:40:00,60.4,57.5,29.89,NNW,330,2.0,11.0,90,0.00,,,0.00,VWS V12.08,2013-08-07 12:40:00,
2013-08-07 07:45:00,60.5,57.6,29.89,North,5,6.0,11.0,90,0.00,,,0.00,VWS V12.08,2013-08-07 12:45:00,
2013-08-07 07:50:00,60.7,57.8,29.89,ENE,58,4.0,12.0,90,0.00,,,0.00,VWS V12.08,2013-08-07 12:50:00,
2013-08-07 07:55:00,60.8,57.8,29.89,NNW,334,6.0,12.0,90,0.00,,,0.00,VWS V12.08,2013-08-07 12:55:00,
2013-08-07 08:00:00,61.1,57.8,29.89,NNW,335,5.0,12.0,89,0.00,,,0.00,VWS V12.08,2013-08-07 13:00:00,
2013-08-07 08:05:00,61.2,57.9,29.90,NE,42,9.0,13.0,89,0.00,,,0.00,VWS V12.08,2013-08-07 13:05:00,
2013-08-07 08:10:00,61.5,57.9,29.90,NNW,333,9.0,16.0,88,0.00,,,0.00,VWS V12.08,2013-08-07 13:10:00,
2013-08-07 08:15:00,61.7,57.8,29.90,North,11,11.0,16.0,87,0.00,,,0.00,VWS V12.08,2013-08-07 13:15:00,
2013-08-07 08:20:00,62.0,58.1,29.90,NNE,23,10.0,16.0,87,0.00,,,0.00,VWS V12.08,2013-08-07 13:20:00,
2013-08-07 08:25:00,62.2,58.0,29.91,North,350,10.0,16.0,86,0.00,,,0.00,VWS V12.08,2013-08-07 13:25:00,
2013-08-07 08:30:00,62.3,58.1,29.91,NNE,26,11.0,16.0,86,0.00,,,0.00,VWS V12.08,2013-08-07 13:30:00,
2013-08-07 08:35:00,62.8,58.6,29.91,NNE,18,3.0,13.0,86,0.00,,,0.00,VWS V12.08,2013-08-07 13:35:00,
2013-08-07 08:40:00,63.3,58.4,29.91,NNW,333,12.0,15.0,84,0.00,,,0.00,VWS V12.08,2013-08-07 13:40:00,
2013-08-07 08:45:00,63.0,58.1,29.91,NE,47,7.0,15.0,84,0.00,,,0.00,VWS V12.08,2013-08-07 13:45:00,
2013-08-07 08:50:00,62.8,58.2,29.91,NE,55,11.0,15.0,85,0.00,,,0.00,VWS V12.08,2013-08-07 13:50:00,
2013-08-07 08:55:00,62.5,57.9,29.91,NE,44,7.0,15.0,85,0.00,,,0.00,VWS V12.08,2013-08-07 13:55:00,
2013-08-07 09:00:00,62.6,58.4,29.91,NE,53,7.0,15.0,86,0.00,,,0.00,VWS V12.08,2013-08-07 14:00:00,
2013-08-07 09:05:00,63.3,58.4,29.91,NNE,24,9.0,11.0,84,0.00,,,0.00,VWS V12.08,2013-08-07 14:05:00,
2013-08-07 09:10:00,64.0,58.1,29.91,NE,54,12.0,14.0,81,0.00,,,0.00,VWS V12.08,2013-08-07 14:10:00,
2013-08-07 09:15:00,64.4,58.1,29.91,NE,35,6.0,14.0,80,0.00,,,0.00,VWS V12.08,2013-08-07 14:15:00,
2013-08-07 09:20:00,64.6,58.3,29.92,NNE,26,10.0,14.0,80,0.00,,,0.00,VWS V12.08,2013-08-07 14:20:00,
2013-08-07 09:25:00,64.7,58.4,29.92,NNW,338,2.0,14.0,80,0.00,,,0.00,VWS V12.08,2013-08-07 14:25:00,
2013-08-07 09:30:00,64.9,58.2,29.92,NE,43,5.0,14.0,79,0.00,,,0.00,VWS V12.08,2013-08-07 14:30:00,
2013-08-07 09:35:00,65.1,58.1,29.92,NE,38,13.0,16.0,78,0.00,,,0.00,VWS V12.08,2013-08-07 14:35:00,
2013-08-07 09:40:00,64.7,58.0,29.92,NNE,22,13.0,16.0,79,0.00,,,0.00,VWS V12.08,2013-08-07 14:40:00,
2013-08-07 09:45:00,64.8,58.5,29.92,NE,40,10.0,16.0,80,0.00,,,0.00,VWS V12.08,2013-08-07 14:45:00,
2013-08-07 09:50:00,65.1,58.4,29.92,NNE,27,9.0,16.0,79,0.00,,,0.00,VWS V12.08,2013-08-07 14:50:00,
2013-08-07 09:55:00,64.7,58.4,29.92,NE,44,5.0,16.0,80,0.00,,,0.00,VWS V12.08,2013-08-07 14:55:00,
2013-08-07 10:00:00,64.9,58.6,29.92,NNE,20,13.0,16.0,80,0.00,,,0.00,VWS V12.08,2013-08-07 15:00:00,
2013-08-07 10:05:00,65.2,58.5,29.92,NE,51,13.0,15.0,79,0.00,,,0.00,VWS V12.08,2013-08-07 15:05:00,
2013-08-07 10:10:00,65.0,58.3,29.93,NE,50,12.0,16.0,79,0.00,,,0.00,VWS V12.08,2013-08-07 15:10:00,
2013-08-07 10:15:00,65.0,58.0,29.93,North,11,15.0,17.0,78,0.00,,,0.00,VWS V12.08,2013-08-07 15:15:00,
2013-08-07 10:20:00,64.7,57.7,29.93,NNE,22,8.0,17.0,78,0.00,,,0.00,VWS V12.08,2013-08-07 15:20:00,
2013-08-07 10:25:00,64.7,57.7,29.93,NNE,26,13.0,17.0,78,0.00,,,0.00,VWS V12.08,2013-08-07 15:25:00,
2013-08-07 10:30:00,65.1,58.1,29.94,NE,50,8.0,17.0,78,0.00,,,0.00,VWS V12.08,2013-08-07 15:30:00,
2013-08-07 10:35:00,65.5,58.1,29.94,NE,53,5.0,17.0,77,0.00,,,0.00,VWS V12.08,2013-08-07 15:35:00,
2013-08-07 10:40:00,65.6,58.2,29.94,ENE,71,6.0,17.0,77,0.00,,,0.00,VWS V12.08,2013-08-07 15:40:00,
2013-08-07 10:45:00,65.8,58.4,29.94,NE,46,12.0,17.0,77,0.00,,,0.00,VWS V12.08,2013-08-07 15:45:00,
2013-08-07 10:50:00,66.0,58.6,29.94,NNW,338,5.0,17.0,77,0.00,,,0.00,VWS V12.08,2013-08-07 15:50:00,
2013-08-07 10:55:00,66.5,58.3,29.95,NE,44,11.0,17.0,75,0.00,,,0.00,VWS V12.08,2013-08-07 15:55:00,
2013-08-07 11:00:00,66.5,58.3,29.95,ENE,64,10.0,17.0,75,0.00,,,0.00,VWS V12.08,2013-08-07 16:00:00,
2013-08-07 11:05:00,66.4,58.6,29.95,North,351,12.0,16.0,76,0.00,,,0.00,VWS V12.08,2013-08-07 16:05:00,
2013-08-07 11:10:00,66.8,58.6,29.95,NNW,329,3.0,16.0,75,0.00,,,0.00,VWS V12.08,2013-08-07 16:10:00,
2013-08-07 11:15:00,67.3,58.7,29.95,ENE,59,6.0,16.0,74,0.00,,,0.00,VWS V12.08,2013-08-07 16:15:00,
2013-08-07 11:20:00,67.5,58.5,29.95,East,80,7.0,16.0,73,0.00,,,0.00,VWS V12.08,2013-08-07 16:20:00,
2013-08-07 11:25:00,67.6,58.7,29.95,NE,38,8.0,16.0,73,0.00,,,0.00,VWS V12.08,2013-08-07 16:25:00,
2013-08-07 11:30:00,67.4,58.8,29.96,NW,318,3.0,16.0,74,0.00,,,0.00,VWS V12.08,2013-08-07 16:30:00,
2013-08-07 11:35:00,67.8,59.2,29.96,NNW,337,3.0,11.0,74,0.00,,,0.00,VWS V12.08,2013-08-07 16:35:00,
2013-08-07 11:40:00,68.2,58.8,29.96,NNE,24,9.0,13.0,72,0.00,,,0.00,VWS V12.08,2013-08-07 16:40:00,
2013-08-07 11:45:00,68.3,58.9,29.96,ENE,63,6.0,13.0,72,0.00,,,0.00,VWS V12.08,2013-08-07 16:45:00,
2013-08-07 11:50:00,68.4,58.6,29.96,NE,53,7.0,13.0,71,0.00,,,0.00,VWS V12.08,2013-08-07 16:50:00,
2013-08-07 11:55:00,68.3,58.5,29.96,ENE,65,9.0,14.0,71,0.00,,,0.00,VWS V12.08,2013-08-07 16:55:00,
2013-08-07 12:00:00,68.3,58.5,29.97,ENE,76,9.0,14.0,71,0.00,,,0.00,VWS V12.08,2013-08-07 17:00:00,
2013-08-07 12:05:00,67.9,58.5,29.96,ESE,108,3.0,11.0,72,0.00,,,0.00,VWS V12.08,2013-08-07 17:05:00,
2013-08-07 12:10:00,67.9,58.9,29.96,ESE,114,3.0,11.0,73,0.00,,,0.00,VWS V12.08,2013-08-07 17:10:00,
2013-08-07 12:15:00,68.6,58.8,29.96,NW,306,4.0,11.0,71,0.00,,,0.00,VWS V12.08,2013-08-07 17:15:00,
2013-08-07 12:20:00,69.2,59.0,29.95,NNW,334,1.0,11.0,70,0.00,,,0.00,VWS V12.08,2013-08-07 17:20:00,
2013-08-07 12:25:00,69.9,58.9,29.95,ESE,107,2.0,11.0,68,0.00,,,0.00,VWS V12.08,2013-08-07 17:25:00,
2013-08-07 12:30:00,70.2,58.7,29.96,NE,49,10.0,12.0,67,0.00,,,0.00,VWS V12.08,2013-08-07 17:30:00,
2013-08-07 12:35:00,69.6,58.6,29.96,SW,230,2.0,11.0,68,0.00,,,0.00,VWS V12.08,2013-08-07 17:35:00,
2013-08-07 12:40:00,70.3,58.4,29.96,ENE,69,7.0,11.0,66,0.00,,,0.00,VWS V12.08,2013-08-07 17:40:00,
2013-08-07 12:45:00,69.8,58.8,29.96,SSE,150,2.0,11.0,68,0.00,,,0.00,VWS V12.08,2013-08-07 17:45:00,
2013-08-07 12:50:00,70.9,59.4,29.96,SSE,152,1.0,11.0,67,0.00,,,0.00,VWS V12.08,2013-08-07 17:50:00,
2013-08-07 12:55:00,71.5,58.7,29.95,ENE,69,6.0,11.0,64,0.00,,,0.00,VWS V12.08,2013-08-07 17:55:00,
2013-08-07 13:00:00,70.3,58.4,29.95,NE,55,8.0,14.0,66,0.00,,,0.00,VWS V12.08,2013-08-07 18:00:00,
2013-08-07 13:05:00,70.2,58.3,29.95,WSW,243,4.0,13.0,66,0.00,,,0.00,VWS V12.08,2013-08-07 18:05:00,
2013-08-07 13:10:00,70.2,57.9,29.95,ENE,70,4.0,13.0,65,0.00,,,0.00,VWS V12.08,2013-08-07 18:10:00,
2013-08-07 13:15:00,70.5,58.2,29.95,ENE,63,6.0,13.0,65,0.00,,,0.00,VWS V12.08,2013-08-07 18:15:00,
2013-08-07 13:20:00,70.5,58.6,29.95,ENE,63,4.0,13.0,66,0.00,,,0.00,VWS V12.08,2013-08-07 18:20:00,
2013-08-07 13:25:00,71.3,58.9,29.95,ENE,74,6.0,13.0,65,0.00,,,0.00,VWS V12.08,2013-08-07 18:25:00,
2013-08-07 13:30:00,71.7,58.5,29.95,NNE,20,3.0,13.0,63,0.00,,,0.00,VWS V12.08,2013-08-07 18:30:00,
2013-08-07 13:35:00,72.0,59.2,29.95,ENE,63,0.0,6.0,64,0.00,,,0.00,VWS V12.08,2013-08-07 18:35:00,
2013-08-07 13:40:00,72.6,58.8,29.95,East,90,10.0,11.0,62,0.00,,,0.00,VWS V12.08,2013-08-07 18:40:00,
2013-08-07 13:45:00,72.5,58.8,29.95,ENE,65,8.0,11.0,62,0.00,,,0.00,VWS V12.08,2013-08-07 18:45:00,
2013-08-07 13:50:00,72.2,58.0,29.95,East,86,5.0,13.0,61,0.00,,,0.00,VWS V12.08,2013-08-07 18:50:00,
2013-08-07 13:55:00,72.1,57.9,29.95,ESE,108,1.0,13.0,61,0.00,,,0.00,VWS V12.08,2013-08-07 18:55:00,
2013-08-07 14:00:00,72.3,57.2,29.95,NW,321,2.0,13.0,59,0.00,,,0.00,VWS V12.08,2013-08-07 19:00:00,
2013-08-07 14:05:00,72.6,57.0,29.95,NW,312,7.0,9.0,58,0.00,,,0.00,VWS V12.08,2013-08-07 19:05:00,
2013-08-07 14:10:00,72.9,57.3,29.95,NW,323,3.0,9.0,58,0.00,,,0.00,VWS V12.08,2013-08-07 19:10:00,
2013-08-07 14:15:00,73.5,57.3,29.95,NNW,341,2.0,9.0,57,0.00,,,0.00,VWS V12.08,2013-08-07 19:15:00,
2013-08-07 14:20:00,74.5,56.8,29.94,NNE,12,9.0,9.0,54,0.00,,,0.00,VWS V12.08,2013-08-07 19:20:00,
2013-08-07 14:25:00,74.3,56.6,29.94,North,351,4.0,9.0,54,0.00,,,0.00,VWS V12.08,2013-08-07 19:25:00,
2013-08-07 14:30:00,74.5,56.8,29.94,NW,313,2.0,9.0,54,0.00,,,0.00,VWS V12.08,2013-08-07 19:30:00,
2013-08-07 14:35:00,74.2,58.0,29.94,North,355,4.0,11.0,57,0.00,,,0.00,VWS V12.08,2013-08-07 19:35:00,
2013-08-07 14:40:00,74.1,57.4,29.94,SE,134,1.0,11.0,56,0.00,,,0.00,VWS V12.08,2013-08-07 19:40:00,
2013-08-07 14:45:00,74.3,57.6,29.93,NNW,337,2.0,11.0,56,0.00,,,0.00,VWS V12.08,2013-08-07 19:45:00,
2013-08-07 14:50:00,74.9,58.2,29.93,ESE,112,4.0,11.0,56,0.00,,,0.00,VWS V12.08,2013-08-07 19:50:00,
2013-08-07 14:55:00,75.0,58.8,29.93,East,93,5.0,11.0,57,0.00,,,0.00,VWS V12.08,2013-08-07 19:55:00,
2013-08-07 15:00:00,74.9,59.1,29.93,NNW,334,3.0,11.0,58,0.00,,,0.00,VWS V12.08,2013-08-07 20:00:00,
2013-08-07 15:05:00,74.4,58.2,29.93,ESE,115,6.0,11.0,57,0.00,,,0.00,VWS V12.08,2013-08-07 20:05:00,
2013-08-07 15:10:00,74.0,57.8,29.93,NNE,26,6.0,12.0,57,0.00,,,0.00,VWS V12.08,2013-08-07 20:10:00,
2013-08-07 15:15:00,74.2,58.0,29.93,East,96,3.0,12.0,57,0.00,,,0.00,VWS V12.08,2013-08-07 20:15:00,
2013-08-07 15:20:00,74.4,58.2,29.93,ENE,74,7.0,12.0,57,0.00,,,0.00,VWS V12.08,2013-08-07 20:20:00,
2013-08-07 15:25:00,75.3,58.5,29.93,East,86,8.0,12.0,56,0.00,,,0.00,VWS V12.08,2013-08-07 20:25:00,
2013-08-07 15:30:00,75.1,58.3,29.93,SE,139,1.0,12.0,56,0.00,,,0.00,VWS V12.08,2013-08-07 20:30:00,
2013-08-07 15:35:00,75.4,58.1,29.93,SSE,168,0.0,7.0,55,0.00,,,0.00,VWS V12.08,2013-08-07 20:35:00,
2013-08-07 15:40:00,75.8,58.5,29.93,East,88,4.0,7.0,55,0.00,,,0.00,VWS V12.08,2013-08-07 20:40:00,
2013-08-07 15:45:00,76.7,58.3,29.93,ESE,109,1.0,7.0,53,0.00,,,0.00,VWS V12.08,2013-08-07 20:45:00,
2013-08-07 15:50:00,77.0,58.0,29.93,NW,322,2.0,7.0,52,0.00,,,0.00,VWS V12.08,2013-08-07 20:50:00,
2013-08-07 15:55:00,76.4,58.0,29.93,WNW,288,3.0,7.0,53,0.00,,,0.00,VWS V12.08,2013-08-07 20:55:00,
2013-08-07 16:00:00,75.9,58.6,29.93,West,281,5.0,7.0,55,0.00,,,0.00,VWS V12.08,2013-08-07 21:00:00,
2013-08-07 16:05:00,75.4,57.6,29.93,NNW,344,3.0,9.0,54,0.00,,,0.00,VWS V12.08,2013-08-07 21:05:00,
2013-08-07 16:10:00,75.7,57.9,29.93,WNW,292,4.0,9.0,54,0.00,,,0.00,VWS V12.08,2013-08-07 21:10:00,
2013-08-07 16:15:00,75.9,58.6,29.93,NW,306,4.0,9.0,55,0.00,,,0.00,VWS V12.08,2013-08-07 21:15:00,
2013-08-07 16:20:00,76.1,58.3,29.93,NNW,341,5.0,10.0,54,0.00,,,0.00,VWS V12.08,2013-08-07 21:20:00,
2013-08-07 16:25:00,75.8,58.0,29.93,WNW,296,0.0,10.0,54,0.00,,,0.00,VWS V12.08,2013-08-07 21:25:00,
2013-08-07 16:30:00,75.4,57.6,29.93,WNW,287,2.0,10.0,54,0.00,,,0.00,VWS V12.08,2013-08-07 21:30:00,
2013-08-07 16:35:00,75.4,58.1,29.93,SW,226,0.0,4.0,55,0.00,,,0.00,VWS V12.08,2013-08-07 21:35:00,
2013-08-07 16:40:00,76.6,59.2,29.93,SSW,192,0.0,4.0,55,0.00,,,0.00,VWS V12.08,2013-08-07 21:40:00,
2013-08-07 16:45:00,76.3,58.5,29.93,NW,321,4.0,7.0,54,0.00,,,0.00,VWS V12.08,2013-08-07 21:45:00,
2013-08-07 16:50:00,76.2,58.4,29.93,NW,325,3.0,7.0,54,0.00,,,0.00,VWS V12.08,2013-08-07 21:50:00,
2013-08-07 16:55:00,75.9,59.1,29.93,WNW,299,1.0,7.0,56,0.00,,,0.00,VWS V12.08,2013-08-07 21:55:00,
2013-08-07 17:00:00,76.3,59.0,29.93,SSW,205,1.0,7.0,55,0.00,,,0.00,VWS V12.08,2013-08-07 22:00:00,
2013-08-07 17:05:00,76.8,58.4,29.93,NE,35,3.0,9.0,53,0.00,,,0.00,VWS V12.08,2013-08-07 22:05:00,
2013-08-07 17:10:00,76.7,58.8,29.93,WNW,300,5.0,9.0,54,0.00,,,0.00,VWS V12.08,2013-08-07 22:10:00,
2013-08-07 17:15:00,76.3,58.5,29.93,West,269,1.0,9.0,54,0.00,,,0.00,VWS V12.08,2013-08-07 22:15:00,
2013-08-07 17:20:00,76.2,58.4,29.93,NE,39,4.0,9.0,54,0.00,,,0.00,VWS V12.08,2013-08-07 22:20:00,
2013-08-07 17:25:00,76.1,58.3,29.93,West,279,3.0,9.0,54,0.00,,,0.00,VWS V12.08,2013-08-07 22:25:00,
2013-08-07 17:30:00,76.3,59.0,29.93,WSW,250,3.0,9.0,55,0.00,,,0.00,VWS V12.08,2013-08-07 22:30:00,
2013-08-07 17:35:00,76.8,58.9,29.93,WNW,294,2.0,9.0,54,0.00,,,0.00,VWS V12.08,2013-08-07 22:35:00,
2013-08-07 17:40:00,76.8,58.4,29.93,West,259,3.0,9.0,53,0.00,,,0.00,VWS V12.08,2013-08-07 22:40:00,
2013-08-07 17:45:00,76.4,58.0,29.93,NW,320,5.0,9.0,53,0.00,,,0.00,VWS V12.08,2013-08-07 22:45:00,
2013-08-07 17:50:00,77.2,59.3,29.93,WNW,295,2.0,9.0,54,0.00,,,0.00,VWS V12.08,2013-08-07 22:50:00,
2013-08-07 17:55:00,77.0,58.0,29.93,SW,223,4.0,10.0,52,0.00,,,0.00,VWS V12.08,2013-08-07 22:55:00,
2013-08-07 18:00:00,76.8,58.9,29.93,WNW,302,5.0,10.0,54,0.00,,,0.00,VWS V12.08,2013-08-07 23:00:00,
2013-08-07 18:05:00,76.5,59.2,29.93,WNW,295,3.0,7.0,55,0.00,,,0.00,VWS V12.08,2013-08-07 23:05:00,
2013-08-07 18:10:00,76.7,59.3,29.93,WSW,249,6.0,7.0,55,0.00,,,0.00,VWS V12.08,2013-08-07 23:10:00,
2013-08-07 18:15:00,76.6,58.7,29.93,SW,217,6.0,9.0,54,0.00,,,0.00,VWS V12.08,2013-08-07 23:15:00,
2013-08-07 18:20:00,76.4,59.1,29.93,WSW,254,1.0,9.0,55,0.00,,,0.00,VWS V12.08,2013-08-07 23:20:00,
2013-08-07 18:25:00,76.8,58.9,29.93,NW,306,2.0,9.0,54,0.00,,,0.00,VWS V12.08,2013-08-07 23:25:00,
2013-08-07 18:30:00,77.0,58.6,29.92,WSW,252,1.0,9.0,53,0.00,,,0.00,VWS V12.08,2013-08-07 23:30:00,
2013-08-07 18:35:00,77.2,58.8,29.92,West,276,2.0,8.0,53,0.00,,,0.00,VWS V12.08,2013-08-07 23:35:00,
2013-08-07 18:40:00,76.9,59.0,29.92,NE,39,8.0,9.0,54,0.00,,,0.00,VWS V12.08,2013-08-07 23:40:00,
2013-08-07 18:45:00,76.2,58.9,29.92,NNE,20,5.0,11.0,55,0.00,,,0.00,VWS V12.08,2013-08-07 23:45:00,
2013-08-07 18:50:00,76.1,58.3,29.92,East,90,2.0,11.0,54,0.00,,,0.00,VWS V12.08,2013-08-07 23:50:00,
2013-08-07 18:55:00,76.1,57.8,29.92,NE,51,5.0,11.0,53,0.00,,,0.00,VWS V12.08,2013-08-07 23:55:00,
2013-08-07 19:00:00,76.0,58.2,29.92,NW,323,1.0,11.0,54,0.00,,,0.00,VWS V12.08,2013-08-08 00:00:00,
2013-08-07 19:05:00,76.6,58.7,29.92,NNE,27,4.0,5.0,54,0.00,,,0.00,VWS V12.08,2013-08-08 00:05:00,
2013-08-07 19:10:00,76.2,58.9,29.92,NE,47,5.0,6.0,55,0.00,,,0.00,VWS V12.08,2013-08-08 00:10:00,
2013-08-07 19:15:00,76.1,58.8,29.92,ENE,66,2.0,7.0,55,0.00,,,0.00,VWS V12.08,2013-08-08 00:15:00,
2013-08-07 19:20:00,76.2,58.9,29.92,ENE,74,2.0,7.0,55,0.00,,,0.00,VWS V12.08,2013-08-08 00:20:00,
2013-08-07 19:25:00,76.3,59.0,29.92,NNE,19,3.0,7.0,55,0.00,,,0.00,VWS V12.08,2013-08-08 00:25:00,
2013-08-07 19:30:00,76.0,58.7,29.92,NE,48,4.0,7.0,55,0.00,,,0.00,VWS V12.08,2013-08-08 00:30:00,
2013-08-07 19:35:00,75.9,59.1,29.92,ENE,57,5.0,5.0,56,0.00,,,0.00,VWS V12.08,2013-08-08 00:35:00,
2013-08-07 19:40:00,75.4,58.6,29.92,ENE,73,2.0,7.0,56,0.00,,,0.00,VWS V12.08,2013-08-08 00:40:00,
2013-08-07 19:45:00,75.5,58.7,29.93,NE,35,3.0,7.0,56,0.00,,,0.00,VWS V12.08,2013-08-08 00:45:00,
2013-08-07 19:50:00,75.5,58.7,29.93,NE,34,3.0,7.0,56,0.00,,,0.00,VWS V12.08,2013-08-08 00:50:00,
2013-08-07 19:55:00,75.1,58.8,29.93,ENE,73,3.0,7.0,57,0.00,,,0.00,VWS V12.08,2013-08-08 00:55:00,
2013-08-07 20:00:00,74.7,59.4,29.93,ENE,64,5.0,7.0,59,0.00,,,0.00,VWS V12.08,2013-08-08 01:00:00,
2013-08-07 20:05:00,74.2,59.9,29.93,NE,47,4.0,7.0,61,0.00,,,0.00,VWS V12.08,2013-08-08 01:05:00,
2013-08-07 20:10:00,73.7,59.9,29.93,East,86,5.0,10.0,62,0.00,,,0.00,VWS V12.08,2013-08-08 01:10:00,
2013-08-07 20:15:00,73.1,60.2,29.93,ENE,76,2.0,10.0,64,0.00,,,0.00,VWS V12.08,2013-08-08 01:15:00,
2013-08-07 20:20:00,72.7,59.8,29.93,ENE,74,5.0,10.0,64,0.00,,,0.00,VWS V12.08,2013-08-08 01:20:00,
2013-08-07 20:25:00,72.2,59.8,29.93,ENE,78,2.0,10.0,65,0.00,,,0.00,VWS V12.08,2013-08-08 01:25:00,
2013-08-07 20:30:00,72.0,59.6,29.93,ENE,58,3.0,10.0,65,0.00,,,0.00,VWS V12.08,2013-08-08 01:30:00,
2013-08-07 20:35:00,71.8,59.8,29.93,ENE,78,3.0,6.0,66,0.00,,,0.00,VWS V12.08,2013-08-08 01:35:00,
2013-08-07 20:40:00,71.6,59.7,29.94,ENE,70,5.0,6.0,66,0.00,,,0.00,VWS V12.08,2013-08-08 01:40:00,
2013-08-07 20:45:00,71.1,60.0,29.93,ENE,57,5.0,8.0,68,0.00,,,0.00,VWS V12.08,2013-08-08 01:45:00,
2013-08-07 20:50:00,70.5,59.8,29.94,ENE,63,3.0,8.0,69,0.00,,,0.00,VWS V12.08,2013-08-08 01:50:00,
2013-08-07 20:55:00,70.2,60.0,29.94,ENE,67,3.0,8.0,70,0.00,,,0.00,VWS V12.08,2013-08-08 01:55:00,
2013-08-07 21:00:00,69.7,59.5,29.94,ENE,78,3.0,8.0,70,0.00,,,0.00,VWS V12.08,2013-08-08 02:00:00,
2013-08-07 21:05:00,69.4,59.2,29.94,ENE,58,6.0,6.0,70,0.00,,,0.00,VWS V12.08,2013-08-08 02:05:00,
2013-08-07 21:10:00,69.2,59.4,29.94,ENE,57,3.0,6.0,71,0.00,,,0.00,VWS V12.08,2013-08-08 02:10:00,
2013-08-07 21:15:00,68.8,59.0,29.95,ENE,73,4.0,7.0,71,0.00,,,0.00,VWS V12.08,2013-08-08 02:15:00,
2013-08-07 21:20:00,68.5,59.1,29.95,ENE,61,5.0,7.0,72,0.00,,,0.00,VWS V12.08,2013-08-08 02:20:00,
2013-08-07 21:25:00,68.2,59.2,29.95,NE,50,4.0,7.0,73,0.00,,,0.00,VWS V12.08,2013-08-08 02:25:00,
2013-08-07 21:30:00,68.0,59.0,29.95,NE,35,2.0,7.0,73,0.00,,,0.00,VWS V12.08,2013-08-08 02:30:00,
2013-08-07 21:35:00,67.8,58.8,29.96,NE,38,2.0,7.0,73,0.00,,,0.00,VWS V12.08,2013-08-08 02:35:00,
2013-08-07 21:40:00,67.6,58.7,29.96,East,80,3.0,7.0,73,0.00,,,0.00,VWS V12.08,2013-08-08 02:40:00,
2013-08-07 21:45:00,67.4,58.8,29.96,ENE,69,5.0,9.0,74,0.00,,,0.00,VWS V12.08,2013-08-08 02:45:00,
2013-08-07 21:50:00,67.2,58.6,29.96,ENE,77,5.0,9.0,74,0.00,,,0.00,VWS V12.08,2013-08-08 02:50:00,
2013-08-07 21:55:00,67.0,58.5,29.96,NE,54,3.0,9.0,74,0.00,,,0.00,VWS V12.08,2013-08-08 02:55:00,
2013-08-07 22:00:00,66.8,58.3,29.96,NE,51,4.0,9.0,74,0.00,,,0.00,VWS V12.08,2013-08-08 03:00:00,
2013-08-07 22:05:00,66.6,58.4,29.97,ENE,57,3.0,5.0,75,0.00,,,0.00,VWS V12.08,2013-08-08 03:05:00,
2013-08-07 22:10:00,66.2,58.0,29.97,ENE,61,5.0,6.0,75,0.00,,,0.00,VWS V12.08,2013-08-08 03:10:00,
2013-08-07 22:15:00,66.2,58.0,29.97,ENE,61,3.0,6.0,75,0.00,,,0.00,VWS V12.08,2013-08-08 03:15:00,
2013-08-07 22:20:00,66.1,58.0,29.97,ENE,61,4.0,6.0,75,0.00,,,0.00,VWS V12.08,2013-08-08 03:20:00,
2013-08-07 22:25:00,66.0,57.9,29.97,NE,48,4.0,7.0,75,0.00,,,0.00,VWS V12.08,2013-08-08 03:25:00,
2013-08-07 22:30:00,65.8,58.0,29.97,ENE,73,4.0,7.0,76,0.00,,,0.00,VWS V12.08,2013-08-08 03:30:00,
2013-08-07 22:35:00,65.4,57.7,29.97,NE,55,2.0,6.0,76,0.00,,,0.00,VWS V12.08,2013-08-08 03:35:00,
2013-08-07 22:40:00,65.0,57.6,29.97,ENE,61,4.0,6.0,77,0.00,,,0.00,VWS V12.08,2013-08-08 03:40:00,
2013-08-07 22:45:00,64.7,57.7,29.97,ENE,61,2.0,7.0,78,0.00,,,0.00,VWS V12.08,2013-08-08 03:45:00,
2013-08-07 22:50:00,64.4,57.4,29.97,ENE,58,4.0,9.0,78,0.00,,,0.00,VWS V12.08,2013-08-08 03:50:00,
2013-08-07 22:55:00,64.2,57.2,29.97,ENE,67,3.0,9.0,78,0.00,,,0.00,VWS V12.08,2013-08-08 03:55:00,
2013-08-07 23:00:00,64.1,57.1,29.97,ENE,61,4.0,9.0,78,0.00,,,0.00,VWS V12.08,2013-08-08 04:00:00,
2013-08-07 23:01:00,64.1,57.1,29.97,ENE,67,9.0,9.0,78,0.00,,,0.00,VWS V12.08,2013-08-08 04:01:00,
2013-08-07 23:06:00,64.0,57.0,29.97,NE,54,5.0,7.0,78,0.00,,,0.00,VWS V12.08,2013-08-08 04:06:00,
2013-08-07 23:11:00,63.9,56.9,29.96,ENE,67,7.0,7.0,78,0.00,,,0.00,VWS V12.08,2013-08-08 04:11:00,
2013-08-07 23:16:00,63.8,56.8,29.96,ENE,69,4.0,7.0,78,0.00,,,0.00,VWS V12.08,2013-08-08 04:16:00,
2013-08-07 23:21:00,63.7,56.7,29.97,NE,48,3.0,7.0,78,0.00,,,0.00,VWS V12.08,2013-08-08 04:21:00,
2013-08-07 23:26:00,63.7,56.7,29.97,East,101,3.0,7.0,78,0.00,,,0.00,VWS V12.08,2013-08-08 04:26:00,
2013-08-07 23:31:00,63.8,56.5,29.97,ENE,74,4.0,5.0,77,0.00,,,0.00,VWS V12.08,2013-08-08 04:31:00,
2013-08-07 23:36:00,63.9,56.6,29.97,ENE,73,5.0,9.0,77,0.00,,,0.00,VWS V12.08,2013-08-08 04:36:00,
2013-08-07 23:41:00,63.9,56.2,29.97,ENE,71,4.0,9.0,76,0.00,,,0.00,VWS V12.08,2013-08-08 04:41:00,
2013-08-07 23:46:00,63.9,56.2,29.97,NNE,32,4.0,9.0,76,0.00,,,0.00,VWS V12.08,2013-08-08 04:46:00,
2013-08-07 23:51:00,63.9,56.2,29.97,ENE,78,4.0,9.0,76,0.00,,,0.00,VWS V12.08,2013-08-08 04:51:00,
2013-08-07 23:56:00,63.9,56.2,29.97,East,96,2.0,9.0,76,0.00,,,0.00,VWS V12.08,2013-08-08 04:56:00,